Weather History for Greenville, AL

Change the Weather History Date:

Wednesday, October 10, 2012

  Actual Average Record
Temperature  
Mean Temperature 63 °F -  
Max Temperature 78 °F 81 °F 91 °F (2014)
Min Temperature 48 °F 55 °F 42 °F (1977)
Degree Days  
Heating Degree Days 2    
Growing Degree Days 13 (Base 50)    
Moisture  
Dew Point 53 °F    
Average Humidity 81    
Maximum Humidity 96    
Minimum Humidity 46    
Precipitation  
Precipitation 0.00 in - - ()
Sea Level Pressure  
Sea Level Pressure 30.13 in    
Wind  
Wind Speed 1 mph (NNW)    
Max Wind Speed 10 mph    
Max Gust Speed -    
Visibility 8 miles    
Events Fog    
Averages and records for this station are not official NWS values.
T = Trace of Precipitation, MM = Missing Value Source: NWS Daily Summary

Daily Weather History Graph

Daily Weather History Graph

Search for Another Location

Airport:

Trip Planner

Search our weather history database for the weather conditions in past years. The results will help you decide how hot, cold, wet, or windy it might be!

Date:

Astronomy

Oct. 10, 2012 Rise Set
Actual Time 6:46 AM CDT 6:19 PM CDT
Civil Twilight 6:22 AM CDT 6:43 PM CDT
Nautical Twilight 5:53 AM CDT 7:12 PM CDT
Astronomical Twilight 5:25 AM CDT 7:40 PM CDT
Moon 1:40 AM CDT (10/10) 3:06 PM CDT (10/10)
Length of Visible Light 12h 21m
Length of Day
11h 32m
Waning Crescent, 27% of the Moon is Illuminated
Oct 10
Waning Crescent
Oct 15
New
Oct 21
First Quarter
Oct 29
Full
Nov 6
Last Quarter

Hourly Weather History & Observations

Time (CDT) Temp. Dew Point Humidity Pressure Visibility Wind Dir Wind Speed Gust Speed Precip Events Conditions
12:56 AM 51.1 °F 48.9 °F 92% 30.09 in 10.0 mi Calm Calm - N/A   Clear
1:56 AM 51.1 °F 48.9 °F 92% 30.09 in 10.0 mi Calm Calm - N/A   Clear
2:56 AM 50.0 °F 46.9 °F 89% 30.09 in 10.0 mi Calm Calm - N/A   Clear
3:56 AM 50.0 °F 48.0 °F 93% 30.10 in 10.0 mi Calm Calm - N/A   Clear
4:56 AM 50.0 °F 46.9 °F 89% 30.10 in 10.0 mi Calm Calm - N/A   Clear
5:14 AM 50.0 °F 46.4 °F 87% 30.11 in 10.0 mi Calm Calm - N/A   Scattered Clouds
5:40 AM 48.2 °F 46.4 °F 93% 30.11 in 10.0 mi Calm Calm - N/A   Mostly Cloudy
5:56 AM 50.0 °F 46.9 °F 89% 30.12 in 10.0 mi Calm Calm - N/A   Overcast
6:17 AM 48.2 °F 46.4 °F 93% 30.13 in 2.5 mi Calm Calm - N/A   Scattered Clouds
6:25 AM 48.2 °F 46.4 °F 93% 30.13 in 2.0 mi Calm Calm - N/A   Mostly Cloudy
6:33 AM 48.2 °F 46.4 °F 93% 30.13 in 7.0 mi Calm Calm - N/A   Mostly Cloudy
6:56 AM 48.9 °F 46.9 °F 93% 30.13 in 4.0 mi Calm Calm - N/A   Overcast
7:27 AM 51.8 °F 50.0 °F 94% 30.14 in 1.5 mi Calm Calm - N/A   Overcast
7:35 AM 51.8 °F 50.0 °F 94% 30.14 in 0.2 mi Calm Calm - N/A Fog Fog
7:56 AM 53.1 °F 52.0 °F 96% 30.15 in 0.2 mi Calm Calm - N/A Fog Fog
8:37 AM 57.2 °F 55.4 °F 94% 30.17 in 2.0 mi Calm Calm - N/A   Overcast
8:45 AM 57.2 °F 55.4 °F 94% 30.17 in 3.0 mi Calm Calm - N/A   Mostly Cloudy
8:56 AM 59.0 °F 57.0 °F 93% 30.17 in 6.0 mi Calm Calm - N/A   Scattered Clouds
10:56 AM 73.0 °F 55.9 °F 55% 30.17 in 10.0 mi NNW 10.4 mph - N/A   Clear
11:56 AM 75.0 °F 55.0 °F 50% 30.15 in 10.0 mi NW 8.1 mph - N/A   Clear
12:56 PM 78.1 °F 55.9 °F 46% 30.13 in 10.0 mi NNE 5.8 mph - N/A   Clear
1:56 PM 78.1 °F 55.9 °F 46% 30.12 in 10.0 mi NNW 6.9 mph - N/A   Clear
2:56 PM 77.0 °F 57.0 °F 50% 30.11 in 10.0 mi WNW 4.6 mph - N/A   Partly Cloudy
3:56 PM 77.0 °F 57.0 °F 50% 30.10 in 10.0 mi Calm Calm - N/A   Mostly Cloudy
4:56 PM 77.0 °F 57.9 °F 52% 30.10 in 10.0 mi West 5.8 mph - N/A   Clear
5:56 PM 75.0 °F 60.1 °F 60% 30.11 in 10.0 mi NNW 3.5 mph - N/A   Mostly Cloudy
6:56 PM 69.1 °F 62.1 °F 78% 30.12 in 10.0 mi Calm Calm - N/A   Clear
7:56 PM 64.9 °F 61.0 °F 87% 30.13 in 10.0 mi Calm Calm - N/A   Clear
8:56 PM 63.0 °F 60.1 °F 90% 30.15 in 10.0 mi Calm Calm - N/A   Clear
9:56 PM 62.1 °F 57.9 °F 86% 30.16 in 10.0 mi Calm Calm - N/A   Clear
10:56 PM 62.1 °F 59.0 °F 90% 30.17 in 10.0 mi North 3.5 mph - N/A   Mostly Cloudy